VNKT Airport Information

Runway Information
Runway 02 Length 10007 ft width 148 ft
Elevation 4313 ft Threshold 0 ft Heading 22
Runway 20 Length 10007 ft Width 148 ft
Elevation 4387 ft Threshold 400 ft Heading 202
Airport Frequencies
Type APP Name KATHMANDU Frequency 120.6 MHZ
Type ATIS Name KATHMANDU Frequency 112.3 MHZ
Type GND Name KATHMANDU Frequency 121.9 MHZ
Type RDO Name KATHMANDU Frequency 292.3 MHZ
Type TWR Name KATHMANDU Frequency 118.1 MHZ
Airport Navaids
Type NDB Name Kathmandu Frequency 318 KHZ
Type VOR-DME Name Kathmandu Frequency 112300 KHZ
Type NDB Name Nalinchowk Frequency 252 KHZ
Airport Weather Information & NOTAM
ADDS - METARS form results

(0348 UTC 07 July 2020)
Data provider http://aviationweather.gov/metar/data/
 
METAR text: VNKT 070320Z 00000KT 9999 FEW010 SCT030 BKN100 25/22 Q1012 NOSIG
Conditions at: VNKT (KATHMANDU INTL A, NP) observed 0320 UTC 07 July 2020
Temperature: 25.0°C (77°F)
Dewpoint: 22.0°C (72°F) [RH = 83%]
Pressure (altimeter): 29.88 inches Hg (1012.0 mb)
Winds: calm
Visibility: 6 or more miles (10+ km)
Ceiling: 10000 feet AGL
Clouds: few clouds at 1000 feet AGL
scattered clouds at 3000 feet AGL
broken clouds at 10000 feet AGL
Weather: no significant weather observed at this time

METAR text: VNKT 070250Z 00000KT 8000 FEW010 SCT030 BKN100 25/22 Q1012 NOSIG
Conditions at: VNKT (KATHMANDU INTL A, NP) observed 0250 UTC 07 July 2020
Temperature: 25.0°C (77°F)
Dewpoint: 22.0°C (72°F) [RH = 83%]
Pressure (altimeter): 29.88 inches Hg (1012.0 mb)
Winds: calm
Visibility: 5 miles ( 8 km)
Ceiling: 10000 feet AGL
Clouds: few clouds at 1000 feet AGL
scattered clouds at 3000 feet AGL
broken clouds at 10000 feet AGL
Weather: no significant weather observed at this time